Volver al catálogo

DMSP 5D-2 F13 DEB

ActivoSSO
NORAD 42315·DEBRIS·🇺🇸 United States

Lanzado Mar 24, 1995 desde Vandenberg Space Force Base

Loading…

Próximos Pases (próximas 24 horas)

TLE

ActualizadoSource: Space-Track

Época: Sep 14, 2026, 15:25 UTC

1 42315U 95015JH  26257.64269486  .00004717  00000-0  11220-2 0  9999
2 42315  98.5510 319.1051 0021336 256.6264 103.2553 14.54191553580865

Sigue DMSP 5D-2 F13 DEB en tiempo real con AllMySat

Download on the App Store